Regional Weather Roundup
Issued by NWS

Home | Current Version | Previous Version | Graphics & Text | Print | Product List | Glossary On
Versions: 1 2 3 4 5 6 7 8 9 10 11 12 13 14 15 16 17 18 19 20 21 22 23 24 25 26 27 28 29 30 31 32 33 34 35 36 37 38 39 40 41 42 43 44 45 46 47 48 49 50
233
ASUS43 KLSX 091510
RWRMO

WEATHER SUMMARY FOR MISSOURI
NATIONAL WEATHER SERVICE SPRINGFIELD MO
900 AM CST TUE FEB 09 2016

NOTE: "FAIR" INDICATES FEW OR NO CLOUDS BELOW 12,000 FEET WITH NO
       SIGNIFICANT WEATHER AND/OR OBSTRUCTIONS TO VISIBILITY.
       CURRENT SKY AND/OR WEATHER CONDITIONS ARE NOT AVAILABLE FOR
       CHILLICOTHE AND FARMINGTON.

MOZ001>031-035>038-043-044-053-054-091600-
...NORTHERN AND WESTERN MISSOURI...

CITY           SKY/WX    TMP DP  RH WIND       PRES   REMARKS
KANSAS CTY INT MOSUNNY   18   8  65 N22G30    30.15R WCI   1
KANSAS C DTWN  MOSUNNY   20   7  57 NW20G35   30.17R WCI   4
LEE`S SUMMIT   SUNNY     19   6  57 NW18G30   30.15R WCI   4
ST JOSEPH      SUNNY     17   5  59 N24G33    30.20R WCI  -1
CHILLICOTHE      N/A     18   8  65 NW15G25   30.13R WCI   4
KIRKSVILLE     FLURRIES  15   5  64 NW20G26   30.05R WCI  -2

$$
MOZ066>068-077>081-088>096-101>105-091600-
...SOUTHWEST MISSOURI...

CITY           SKY/WX    TMP DP  RH WIND       PRES   REMARKS
SPRINGFIELD    SUNNY     27   9  46 NW26G38   30.04R WCI  12
JOPLIN         SUNNY     31  16  54 N20G28    30.14R WCI  19

$$
MOZ032>034-039>042-045>050-055>058-069>072-091600-
...CENTRAL MISSOURI...

CITY           SKY/WX    TMP DP  RH WIND       PRES   REMARKS
COLUMBIA       FLURRIES  18   9  68 NW21      30.04R WCI   1
JEFFERSON CITY CLOUDY    19   8  62 NW14G23   30.07R WCI   6
ROLLA          LGT SNOW  18  10  71 NW14      29.99R WCI   4
SEDALIA        CLOUDY    18   7  62 NW24G31   30.11R WCI   0
WHITEMAN AFB   PTSUNNY   19   7  60 NW15      30.11R WCI   4
WARRENSBURG    MOSUNNY   19  10  68 NW17G24   30.14R WCI   4
OSAGE BEACH    CLOUDY    19   7  58 NW15G22   30.06R WCI   5

$$
MOZ051-052-059>065-091600-
...EAST CENTRAL MISSOURI...

CITY           SKY/WX    TMP DP  RH WIND       PRES   REMARKS
ST LOUIS INTL  LGT SNOW  19  10  68 NW21G26   29.98S WCI   3
SPIRIT OF STL  CLOUDY    20  10  65 NW21G28   30.00R WCI   4
ST CHARLES     LGT SNOW  19  12  74 NW12      30.00R WCI   7

$$
MOZ072>076-082>087-097>100-106>115-091600-
...SOUTH CENTRAL AND SOUTHEAST MISSOURI...

CITY           SKY/WX    TMP DP  RH WIND       PRES   REMARKS
CAPE GIRARDEAU LGT SNOW  23  18  81 NW10      29.98R WCI  12
FARMINGTON     MIX PCPN  19  10  68 NW16G22   29.96R WCI   4
POPLAR BLUFF   CLOUDY    27  13  55 N16       29.98R WCI  15
WEST PLAINS    CLOUDY    24  10  55 NW18G25   29.99R WCI  10

$$




USA.gov is the U.S. government's official web portal to all federal, state and local government web resources and services.